Location: ??????
(33.3472°N, 35.4764°E)
Time: 09:38:06
(UTC+00:00)

Meteor 2-2 Rocket - Pass Details

Date: 21 August 2019
Orbit: 853 x 928 km, 81.3° (Epoch: 22 October)

Event Time Altitude Azimuth Distance (km) Brightness Sun altitude
Rises 02:14:17 0° 187° (S) 3,405 7.1 -10.7°
Reaches altitude 10° 02:16:41 10° 187° (S) 2,472 6.3 -10.3°
Maximum altitude 02:22:18 88° 277° (W) 860 4.3 -9.2°
Drops below altitude 10° 02:27:59 10° 8° (N) 2,505 7.1 -8.1°
Sets 02:30:26 0° 8° (N) 3,454 7.8 -7.6°
